Tracking 18852 objects as of 23-Nov-2017
HD Live streaming from Space Station
objects crossing your sky now

COSMOS 1359

Track COSMOS 1359 now!
10-day predictions
COSMOS 1359 is classified as:


NORAD ID: 13162
Int'l Code: 1982-040C
Perigee: 1,438.9 km
Apogee: 1,487.7 km
Inclination: 74.0 °
Period: 115.0 minutes
Semi major axis: 7834 km
RCS: 0.7219 m2 (medium)
Launch date: May 6, 1982
Source: Commonwealth of Independent States (former USSR) (CIS)
Launch site: PLESETSK MISSILE AND SPACE COMPLEX (PKMTR)
aabbcc
Your satellite tracking list
Your tracking list is empty




NASA's NSSDC Master Catalog

Two Line Element Set (TLE):
1 13162U 82040C   17326.62663772 -.00000015 +00000-0 +99573-5 0  9990
2 13162 074.0120 089.8456 0031160 000.1183 120.7874 12.51993013626033
Source of the keplerian elements: AFSPC